Location: Newark
(35.9667°S, 26.6167°E)
Time: 14:46:42
(UTC+00:00)

OTV 5 (USA 277) - Visible Passes

Search period start: 15 October 2019 00:00
Search period end: 25 October 2019 00:00
Orbit: 310 x 324 km, 54.5° (Epoch: 08 October)

Date Brightness Start Highest point End Pass type
(mag) Time Alt. Az. Time Alt. Az. Time Alt. Az.
15 Oct ? 16:50:03 10° SSW 16:52:35 31° SE 16:55:06 10° ENE visible
15 Oct ? 18:25:36 10° WNW 18:26:21 11° WNW 18:26:21 11° WNW visible
16 Oct ? 17:04:25 10° SW 17:07:10 72° NW 17:09:53 10° NE visible
17 Oct ? 17:19:28 10° WSW 17:21:35 20° NW 17:23:42 10° N visible
